Radiation Dose at Monitoring Post of Fukushima Daini Nuclear Power Station
Date,Time,MP-1(microSv/h),MP-2(microSv/h),MP-3(microSv/h),MP-4(microSv/h),MP-5(microSv/h),MP-6(microSv/h),MP-7(microSv/h),Wind Direction,Wind Velocity(m/s),Rain
2020/07/30,00:00,0.163,0.147,0.238,0.230,0.238,0.127,0.078,north,2.4,No
2020/07/30,00:10,0.163,0.149,0.240,0.228,0.237,0.127,0.078,north-northeast,2.9,No
2020/07/30,00:20,0.163,0.148,0.239,0.230,0.236,0.128,0.079,north-northeast,2.1,No
2020/07/30,00:30,0.162,0.149,0.240,0.228,0.239,0.127,0.078,north-northeast,4.3,No
2020/07/30,00:40,0.164,0.149,0.237,0.231,0.235,0.127,0.078,north-northeast,4.8,No
2020/07/30,00:50,0.162,0.149,0.240,0.229,0.238,0.127,0.079,north-northeast,5.1,No
2020/07/30,01:00,0.163,0.149,0.239,0.230,0.237,0.127,0.079,northeast,3.4,No
2020/07/30,01:10,0.163,0.148,0.238,0.229,0.236,0.128,0.079,northeast,1.3,No
2020/07/30,01:20,0.163,0.150,0.240,0.229,0.238,0.127,0.078,north,1.3,No
2020/07/30,01:30,0.164,0.148,0.239,0.231,0.236,0.127,0.079,north-northeast,1.1,No
2020/07/30,01:40,0.163,0.150,0.239,0.228,0.238,0.128,0.079,north,1.0,No
2020/07/30,01:50,0.164,0.149,0.237,0.231,0.237,0.127,0.079,north-northeast,1.1,No
2020/07/30,02:00,0.162,0.148,0.239,0.230,0.238,0.127,0.078,-,CALM,No
2020/07/30,02:10,0.164,0.149,0.240,0.229,0.238,0.129,0.078,-,CALM,No
2020/07/30,02:20,0.164,0.148,0.238,0.231,0.235,0.127,0.079,northeast,1.6,No
2020/07/30,02:30,0.164,0.149,0.240,0.228,0.239,0.128,0.078,east-northeast,1.4,No
2020/07/30,02:40,0.165,0.148,0.236,0.231,0.236,0.127,0.079,northeast,1.2,No
2020/07/30,02:50,0.163,0.149,0.241,0.229,0.236,0.128,0.078,east-northeast,0.8,No
2020/07/30,03:00,0.164,0.149,0.238,0.231,0.239,0.128,0.078,east-northeast,1.2,No
2020/07/30,03:10,0.163,0.149,0.239,0.230,0.236,0.128,0.079,northeast,0.9,No
2020/07/30,03:20,0.163,0.149,0.239,0.229,0.239,0.128,0.078,northeast,0.8,No
2020/07/30,03:30,0.164,0.149,0.238,0.231,0.237,0.128,0.079,east,0.8,No
2020/07/30,03:40,0.163,0.149,0.240,0.228,0.238,0.128,0.079,east,0.9,No
2020/07/30,03:50,0.164,0.148,0.237,0.231,0.238,0.128,0.079,east,0.6,No
2020/07/30,04:00,0.163,0.149,0.241,0.230,0.236,0.127,0.079,east-southeast,0.7,No
2020/07/30,04:10,0.164,0.149,0.239,0.230,0.238,0.128,0.078,-,CALM,No
2020/07/30,04:20,0.164,0.149,0.238,0.230,0.236,0.128,0.079,-,CALM,No
2020/07/30,04:30,0.163,0.149,0.240,0.230,0.238,0.128,0.080,-,CALM,Yes
2020/07/30,04:40,0.165,0.149,0.239,0.231,0.240,0.129,0.080,-,CALM,Yes
2020/07/30,04:50,0.164,0.151,0.241,0.229,0.237,0.129,0.081,-,CALM,No
2020/07/30,05:00,0.166,0.150,0.240,0.233,0.240,0.130,0.080,-,CALM,Yes
2020/07/30,05:10,0.165,0.151,0.241,0.232,0.239,0.131,0.080,southwest,1.5,Yes
2020/07/30,05:20,0.166,0.150,0.240,0.232,0.239,0.130,0.081,-,CALM,No
2020/07/30,05:30,0.166,0.151,0.241,0.233,0.239,0.131,0.081,-,CALM,No
2020/07/30,05:40,0.164,0.148,0.240,0.231,0.237,0.129,0.080,-,CALM,No
2020/07/30,05:50,0.165,0.151,0.239,0.232,0.239,0.130,0.081,-,CALM,No
2020/07/30,06:00,0.164,0.149,0.239,0.230,0.236,0.130,0.080,-,CALM,No
2020/07/30,06:10,0.164,0.149,0.238,0.232,0.239,0.129,0.080,-,CALM,Yes
2020/07/30,06:20,0.165,0.149,0.241,0.231,0.238,0.130,0.080,-,CALM,Yes
2020/07/30,06:30,0.164,0.149,0.238,0.230,0.238,0.129,0.081,-,CALM,Yes
2020/07/30,06:40,0.165,0.151,0.239,0.232,0.241,0.129,0.082,north-northwest,0.6,No
2020/07/30,06:50,0.164,0.150,0.240,0.230,0.238,0.130,0.082,west-southwest,0.8,Yes
2020/07/30,07:00,0.166,0.151,0.240,0.232,0.240,0.129,0.080,-,CALM,No
2020/07/30,07:10,0.166,0.149,0.240,0.231,0.239,0.130,0.081,southwest,0.9,No
2020/07/30,07:20,0.164,0.151,0.239,0.232,0.239,0.130,0.081,west-southwest,1.2,Yes
2020/07/30,07:30,0.166,0.150,0.242,0.231,0.240,0.131,0.083,west-southwest,1.2,Yes
2020/07/30,07:40,0.164,0.151,0.239,0.230,0.238,0.132,0.082,west-southwest,1.0,Yes
2020/07/30,07:50,0.167,0.152,0.242,0.233,0.241,0.131,0.082,southwest,1.2,Yes
2020/07/30,08:00,0.167,0.152,0.241,0.230,0.240,0.132,0.082,-,CALM,Yes
2020/07/30,08:10,0.168,0.152,0.240,0.233,0.241,0.132,0.083,south-southwest,0.6,Yes
2020/07/30,08:20,0.168,0.152,0.241,0.232,0.241,0.132,0.084,southwest,0.8,Yes
2020/07/30,08:30,0.166,0.154,0.241,0.232,0.238,0.133,0.083,west-southwest,0.7,No
2020/07/30,08:40,0.168,0.152,0.241,0.232,0.241,0.131,0.083,west-southwest,0.7,Yes
2020/07/30,08:50,0.166,0.151,0.239,0.230,0.239,0.132,0.082,-,CALM,Yes
2020/07/30,09:00,0.168,0.153,0.241,0.234,0.239,0.132,0.083,-,CALM,Yes
2020/07/30,09:10,0.168,0.153,0.241,0.231,0.241,0.131,0.084,south-southeast,0.9,Yes
2020/07/30,09:20,0.167,0.154,0.239,0.232,0.238,0.133,0.083,southeast,0.9,Yes
2020/07/30,09:30,0.168,0.153,0.239,0.231,0.242,0.132,0.084,south-southeast,1.2,Yes
2020/07/30,09:40,0.166,0.154,0.237,0.230,0.239,0.131,0.082,southeast,1.1,No
2020/07/30,09:50,0.168,0.152,0.240,0.232,0.238,0.131,0.082,southeast,1.4,No
2020/07/30,10:00,0.165,0.151,0.238,0.230,0.241,0.130,0.082,southeast,1.5,No
2020/07/30,10:10,0.163,0.152,0.235,0.228,0.239,0.129,0.081,east-southeast,1.8,No
2020/07/30,10:20,0.164,0.151,0.236,0.229,0.236,0.129,0.080,east-southeast,1.7,No
2020/07/30,10:30,0.164,0.148,0.237,0.229,0.235,0.129,0.080,east-southeast,2.5,No
2020/07/30,10:40,0.163,0.149,0.235,0.227,0.238,0.128,0.080,southeast,2.6,No
2020/07/30,10:50,0.162,0.148,0.234,0.226,0.238,0.128,0.079,southeast,2.6,No
2020/07/30,11:00,0.162,0.148,0.237,0.229,0.235,0.129,0.078,southeast,2.8,No
2020/07/30,11:10,0.163,0.148,0.238,0.228,0.234,0.127,0.078,southeast,2.6,No
2020/07/30,11:20,0.160,0.148,0.236,0.226,0.236,0.127,0.079,south-southeast,2.7,No
2020/07/30,11:30,0.162,0.149,0.234,0.226,0.238,0.128,0.078,south-southeast,3.2,No
2020/07/30,11:40,0.164,0.148,0.238,0.229,0.236,0.127,0.078,south-southeast,3.3,No
2020/07/30,11:50,0.163,0.148,0.237,0.229,0.235,0.127,0.077,south-southeast,3.5,No
2020/07/30,12:00,0.161,0.147,0.236,0.227,0.234,0.127,0.077,south-southeast,3.1,No
2020/07/30,12:10,0.161,0.149,0.235,0.227,0.236,0.127,0.078,southeast,3.1,No
2020/07/30,12:20,0.163,0.149,0.239,0.230,0.238,0.128,0.078,south-southeast,3.0,No
2020/07/30,12:30,0.163,0.147,0.237,0.228,0.236,0.128,0.078,south-southeast,2.5,No
2020/07/30,12:40,0.163,0.147,0.236,0.227,0.235,0.127,0.079,southeast,2.3,No
2020/07/30,12:50,0.160,0.148,0.235,0.226,0.235,0.127,0.078,southeast,2.9,No
2020/07/30,13:00,0.164,0.149,0.238,0.230,0.237,0.126,0.078,south-southeast,3.2,No
2020/07/30,13:10,0.162,0.148,0.237,0.228,0.238,0.127,0.077,south-southeast,3.3,No
2020/07/30,13:20,0.161,0.147,0.235,0.228,0.236,0.126,0.077,south-southeast,3.1,No
2020/07/30,13:30,0.161,0.147,0.235,0.228,0.235,0.128,0.078,south-southeast,2.4,No
2020/07/30,13:40,0.164,0.148,0.238,0.228,0.234,0.128,0.078,south-southeast,3.3,No
2020/07/30,13:50,0.164,0.148,0.239,0.229,0.236,0.127,0.078,south-southeast,3.3,No
2020/07/30,14:00,0.162,0.148,0.237,0.229,0.240,0.128,0.078,south-southeast,3.2,No
2020/07/30,14:10,0.162,0.147,0.235,0.228,0.237,0.128,0.079,south-southeast,3.5,No
2020/07/30,14:20,0.164,0.148,0.237,0.228,0.237,0.128,0.078,south-southeast,2.8,No
2020/07/30,14:30,0.163,0.148,0.239,0.229,0.234,0.127,0.078,south-southeast,2.9,No
2020/07/30,14:40,0.161,0.148,0.238,0.229,0.238,0.127,0.078,southeast,3.0,No
2020/07/30,14:50,0.163,0.148,0.238,0.227,0.239,0.128,0.077,southeast,3.3,No
2020/07/30,15:00,0.164,0.148,0.238,0.228,0.238,0.127,0.078,south-southeast,2.7,No
2020/07/30,15:10,0.163,0.149,0.239,0.231,0.236,0.128,0.079,southeast,2.4,No
2020/07/30,15:20,0.161,0.148,0.237,0.230,0.234,0.128,0.078,south-southeast,2.3,No
2020/07/30,15:30,0.163,0.148,0.237,0.227,0.237,0.128,0.078,southeast,2.2,No
2020/07/30,15:40,0.163,0.149,0.240,0.230,0.239,0.128,0.078,southeast,2.3,No
2020/07/30,15:50,0.162,0.148,0.237,0.231,0.236,0.127,0.079,southeast,1.6,No
2020/07/30,16:00,0.163,0.148,0.238,0.229,0.236,0.128,0.078,south-southeast,1.6,No
2020/07/30,16:10,0.163,0.149,0.239,0.229,0.240,0.129,0.078,southeast,1.9,No
2020/07/30,16:20,0.162,0.149,0.239,0.230,0.238,0.127,0.078,southeast,1.4,No
2020/07/30,16:30,0.162,0.148,0.237,0.229,0.236,0.128,0.079,southeast,1.4,No
2020/07/30,16:40,0.164,0.149,0.240,0.229,0.240,0.128,0.078,south-southeast,1.4,No
2020/07/30,16:50,0.163,0.148,0.238,0.232,0.239,0.127,0.079,south-southeast,1.7,No
2020/07/30,17:00,0.163,0.149,0.239,0.229,0.237,0.128,0.078,southeast,1.9,No
2020/07/30,17:10,0.164,0.149,0.240,0.229,0.238,0.129,0.078,south-southeast,2.0,No
2020/07/30,17:20,0.162,0.148,0.237,0.232,0.238,0.127,0.079,south-southeast,2.0,No
2020/07/30,17:30,0.164,0.149,0.239,0.229,0.237,0.128,0.079,south-southeast,2.0,No
2020/07/30,17:40,0.163,0.150,0.240,0.231,0.239,0.128,0.078,south-southeast,1.8,No
2020/07/30,17:50,0.162,0.148,0.237,0.231,0.239,0.127,0.078,south-southeast,2.0,No
2020/07/30,18:00,0.165,0.149,0.240,0.229,0.236,0.128,0.078,south-southeast,1.3,No
2020/07/30,18:10,0.164,0.149,0.239,0.231,0.239,0.128,0.078,south-southeast,1.8,No
2020/07/30,18:20,0.163,0.148,0.237,0.230,0.238,0.127,0.078,south,1.5,No
2020/07/30,18:30,0.164,0.149,0.239,0.230,0.236,0.129,0.077,south-southeast,1.3,No
2020/07/30,18:40,0.162,0.147,0.238,0.230,0.240,0.128,0.079,south-southeast,1.5,No
2020/07/30,18:50,0.163,0.149,0.240,0.229,0.236,0.128,0.078,south,2.6,No
2020/07/30,19:00,0.164,0.149,0.239,0.231,0.238,0.128,0.078,south-southeast,2.1,No
2020/07/30,19:10,0.162,0.148,0.238,0.231,0.238,0.128,0.079,south,2.5,No
2020/07/30,19:20,0.163,0.149,0.239,0.230,0.236,0.128,0.079,south,3.3,No
2020/07/30,19:30,0.164,0.147,0.238,0.232,0.240,0.129,0.079,south,3.6,No
2020/07/30,19:40,0.163,0.150,0.240,0.229,0.237,0.128,0.079,south,3.4,No
2020/07/30,19:50,0.165,0.150,0.239,0.231,0.237,0.128,0.078,south,3.7,No
2020/07/30,20:00,0.162,0.149,0.238,0.231,0.239,0.128,0.079,south,3.8,No
2020/07/30,20:10,0.164,0.149,0.240,0.230,0.236,0.127,0.079,south-southeast,3.4,No
2020/07/30,20:20,0.163,0.147,0.238,0.231,0.239,0.129,0.078,south,4.4,No
2020/07/30,20:30,0.164,0.149,0.240,0.230,0.238,0.128,0.079,south,3.5,No
2020/07/30,20:40,0.165,0.148,0.238,0.232,0.237,0.129,0.079,south,2.9,No
2020/07/30,20:50,0.162,0.150,0.239,0.231,0.240,0.128,0.078,south,2.8,No
2020/07/30,21:00,0.164,0.149,0.239,0.230,0.237,0.128,0.079,south,2.9,No
2020/07/30,21:10,0.163,0.149,0.239,0.231,0.237,0.129,0.079,south,2.4,No
2020/07/30,21:20,0.164,0.149,0.241,0.228,0.238,0.128,0.079,south,2.6,No
2020/07/30,21:30,0.164,0.148,0.239,0.233,0.237,0.129,0.079,south,2.3,No
2020/07/30,21:40,0.164,0.150,0.242,0.231,0.241,0.129,0.079,south,2.6,No
2020/07/30,21:50,0.164,0.149,0.239,0.231,0.237,0.128,0.079,south,2.7,No
2020/07/30,22:00,0.164,0.150,0.239,0.232,0.238,0.129,0.079,south,3.0,No
2020/07/30,22:10,0.163,0.149,0.241,0.230,0.239,0.130,0.079,south-southwest,2.4,No
2020/07/30,22:20,0.163,0.149,0.240,0.233,0.237,0.129,0.079,south-southwest,2.2,No
2020/07/30,22:30,0.163,0.148,0.241,0.230,0.239,0.130,0.079,south,2.0,No
2020/07/30,22:40,0.165,0.149,0.239,0.232,0.238,0.128,0.079,south,2.4,No
2020/07/30,22:50,0.163,0.150,0.241,0.231,0.238,0.129,0.079,south-southeast,2.0,No
2020/07/30,23:00,0.165,0.150,0.241,0.232,0.238,0.129,0.080,south,2.3,No
2020/07/30,23:10,0.165,0.150,0.239,0.232,0.237,0.128,0.079,south-southwest,1.4,No
2020/07/30,23:20,0.163,0.150,0.241,0.230,0.241,0.129,0.080,south-southwest,1.2,No
2020/07/30,23:30,0.165,0.150,0.239,0.233,0.240,0.129,0.080,south-southwest,0.8,No
2020/07/30,23:40,0.164,0.149,0.242,0.231,0.238,0.129,0.079,south,1.6,No
2020/07/30,23:50,0.165,0.150,0.239,0.232,0.239,0.130,0.079,south,1.9,No
